This is the latest recevied weather packets stored in our database for station/object DM4XI-13. If no packets are shown the sender has not sent any weather packets the latest 10 day(s).
| Time | Temp. | Humidity | Pressure | Rain* | Wind** | Luminosity | Snow |
|---|---|---|---|---|---|---|---|
| 1777804334 | 25° C | 30% | 1012.9 hPa | 0 mm | 0.89 m/s, 149° | 632 W/m² | - |
| 1777804273 | 25° C | 32% | 1013 hPa | 0 mm | 2.24 m/s, 180° | 631 W/m² | - |
| 1777804212 | 25° C | 33% | 1013 hPa | 0 mm | 0.89 m/s, 187° | 618 W/m² | - |
| 1777804151 | 24.44° C | 32% | 1013 hPa | 0 mm | 0.45 m/s, 185° | 623 W/m² | - |
| 1777804089 | 24.44° C | 33% | 1013.1 hPa | 0 mm | 0 m/s | 625 W/m² | - |
| 1777804029 | 24.44° C | 31% | 1013 hPa | 0 mm | 0.45 m/s, 171° | 626 W/m² | - |
| 1777803967 | 24.44° C | 31% | 1013 hPa | 0 mm | 0.89 m/s, 139° | 629 W/m² | - |
| 1777803906 | 24.44° C | 31% | 1013.1 hPa | 0 mm | 0.45 m/s, 158° | 625 W/m² | - |
| 1777803845 | 24.44° C | 32% | 1013.2 hPa | 0 mm | 1.79 m/s, 161° | 626 W/m² | - |
| 1777803784 | 23.89° C | 34% | 1013 hPa | 0 mm | 0.45 m/s, 179° | 626 W/m² | - |
| 1777803723 | 23.89° C | 34% | 1013.1 hPa | 0 mm | 0.45 m/s, 162° | 622 W/m² | - |
| 1777803663 | 23.89° C | 32% | 1013.3 hPa | 0 mm | 0 m/s | 621 W/m² | - |
| 1777803602 | 23.89° C | 33% | 1013.1 hPa | 0 mm | 0 m/s | 600 W/m² | - |
| 1777803541 | 23.89° C | 33% | 1013.3 hPa | 0 mm | 0.89 m/s, 169° | 599 W/m² | - |
| 1777803479 | 23.89° C | 34% | 1013.2 hPa | 0 mm | 0.45 m/s, 187° | 607 W/m² | - |
| 1777803418 | 23.89° C | 34% | 1013.1 hPa | 0 mm | 1.34 m/s, 159° | 598 W/m² | - |
| 1777803357 | 23.89° C | 34% | 1013.2 hPa | 0 mm | 0.45 m/s, 188° | 596 W/m² | - |
| 1777803296 | 23.89° C | 33% | 1013.2 hPa | 0 mm | 1.34 m/s, 173° | 605 W/m² | - |
| 1777803235 | 23.89° C | 33% | 1013.2 hPa | 0 mm | 0.89 m/s, 178° | 608 W/m² | - |
| 1777803174 | 23.89° C | 33% | 1013.2 hPa | 0 mm | 1.79 m/s, 177° | 616 W/m² | - |
| 1777803113 | 23.89° C | 33% | 1013.2 hPa | 0 mm | 1.79 m/s, 198° | 618 W/m² | - |
| 1777803052 | 23.89° C | 34% | 1013.3 hPa | 0 mm | 0.45 m/s, 158° | 622 W/m² | - |
| 1777802991 | 23.89° C | 32% | 1013.3 hPa | 0 mm | 0.45 m/s, 197° | 617 W/m² | - |
| 1777802930 | 23.89° C | 32% | 1013.4 hPa | 0 mm | 0 m/s | 611 W/m² | - |
| 1777802869 | 23.89° C | 33% | 1013.4 hPa | 0 mm | 1.34 m/s, 188° | 618 W/m² | - |
* Rain latest hour (hover to see other rain measurements)
** Current wind speed in m/s (hover to see current wind gust speed)